This demonstration page uses our WeatherBlox Daily Observations layout. Learn more.

Hourly Observations for July 26, 2017

Temp ( °F °C ) Dew Point ( °F °C ) Humidity (%) Winds ( mph kmh ) Pressure ( in mb ) Visibility ( mi km ) Precip ( " mm )
12:54 am 00:54 Clear 83 28.3 69 20.6 63 63 SSE 15 24 29.91 1013 10 16.0934 0 0
1:54 am 01:54 Clear 83 28.3 70 21.1 65 65 SSE 16 26 29.89 1012 10 16.0934 0 0
2:54 am 02:54 Mostly Clear 81 27.2 70 21.1 69 69 S 13 20 29.87 1012 10 16.0934 0 0
3:54 am 03:54 Mostly Clear 82 27.8 70 21.1 67 67 S 15 24 29.85 1011 10 16.0934 0 0
4:54 am 04:54 Mostly Cloudy with Nearby Thunderstorms 83 28.3 70 21.1 65 65 W 12 19 29.91 1013 10 16.0934 0 0
5:05 am 05:05 Cloudy with Thunderstorms 82 27.8 71 21.7 69 69 W 23 37 29.94 1014 10 16.0934 0 0
5:20 am 05:20 Cloudy with Nearby Thunderstorms 76 24.4 73 22.8 91 91 W 13 20 29.94 1014 2.5 4.02335 0.05 1.27
5:34 am 05:34 Cloudy with Nearby Thunderstorms 75 23.9 72 22.2 90 90 W 6 9 29.94 1014 1.75 2.816345 0.21 5.334
5:39 am 05:39 Cloudy with Nearby Thunderstorms 75 23.9 72 22.2 90 90 SW 7 11 29.94 1014 3 4.82802 0.23 5.842
5:54 am 05:54 Mostly Cloudy with Nearby Thunderstorms 75 23.9 72 22.2 90 90 SSW 7 11 29.94 1014 6 9.65604 0.26 6.604
6:02 am 06:02 Mostly Cloudy with Light Rain 74 23.3 72 22.2 94 94 WSW 6 9 29.91 1013 5 8.0467 0.02 0.508
6:54 am 06:54 Partly Cloudy with Light Rain 74 23.3 73 22.8 97 97 SSE 10 17 29.93 1014 7 11.26538 0.09 2.286
7:54 am 07:54 Mostly Cloudy with Light Rain 75 23.9 73 22.8 94 94 SE 7 11 29.94 1014 6 9.65604 0.05 1.27
8:43 am 08:43 Mostly Cloudy with Light Rain 75 23.9 73 22.8 94 94 SE 13 20 29.94 1014 5 8.0467 0.03 0.762
8:54 am 08:54 Cloudy with Light Rain 75 23.9 73 22.8 94 94 SSE 10 17 29.95 1014 7 11.26538 0.04 1.016
9:03 am 09:03 Mostly Cloudy with Light Rain 75 23.9 73 22.8 94 94 SSE 8 13 29.91 1013 9 14.48406 0 0.0254
9:17 am 09:17 Mostly Sunny 75 23.9 72 22.2 90 90 SSE 9 15 29.91 1013 10 16.0934 0 0.0254
9:54 am 09:54 Mostly Cloudy with Rain 75 23.9 72 22.2 90 90 S 6 9 29.94 1014 4 6.43736 0.01 0.254
10:54 am 10:54 Cloudy 77 25 72 22.2 85 85 SE 5 7 29.93 1014 10 16.0934 0.01 0.254
11:54 am 11:54 Mostly Cloudy 80 26.7 74 23.3 82 82 SE 6 9 29.93 1013 10 16.0934 0 0
12:54 pm 12:54 Cloudy 81 27.2 75 23.9 82 82 SSE 5 7 29.93 1014 10 16.0934 0 0
1:54 pm 13:54 Cloudy 81 27.2 74 23.3 79 79 S 3 6 29.94 1014 10 16.0934 0.01 0.254
2:54 pm 14:54 Cloudy 79 26.1 75 23.9 88 88 NNE 13 20 29.94 1014 10 16.0934 0 0
3:21 pm 15:21 Cloudy with Light Rain 76 24.4 73 22.8 91 91 N 13 20 29.91 1013 3 4.82802 0.02 0.508
3:37 pm 15:37 Cloudy with Heavy Rain 74 23.3 72 22.2 94 94 N 12 19 29.91 1013 1.75 2.816345 0.05 1.27
3:43 pm 15:43 Cloudy with Heavy Rain 74 23.3 72 22.2 94 94 N 12 19 29.91 1013 0.75 1.207005 0.17 4.318
3:50 pm 15:50 Cloudy with Heavy Thunderstorms 73 23 72 22 94 94 NW 8 13 29.94 1014 0.5 0.80467 0.32 8.128
3:54 pm 15:54 Cloudy with Heavy Thunderstorms 73 22.8 72 22.2 96 96 NW 5 7 29.95 1014 0.5 0.80467 0.37 9.398
4:08 pm 16:08 Cloudy with Heavy Rain 73 22.8 72 22.2 96 96 NNW 3 6 29.94 1014 0.5 0.80467 0.32 8.128
4:17 pm 16:17 Cloudy with Nearby Thunderstorms 73 22.8 72 22.2 96 96 N 9 15 29.97 1015 0.75 1.207005 0.46 11.684
4:35 pm 16:35 Mostly Cloudy with Heavy Thunderstorms 73 22.8 72 22.2 96 96 N 8 13 29.97 1015 0.5 0.80467 0.87 22.098
4:45 pm 16:45 Cloudy with Heavy Thunderstorms 73 22.8 72 22.2 96 96 NNE 8 13 29.97 1015 0.5 0.80467 1.19 30.226
4:54 pm 16:54 Cloudy with Heavy Thunderstorms 73 22.8 72 22.2 96 96 N 7 11 29.96 1015 0.75 1.207005 1.36 34.544
5:16 pm 17:16 Cloudy with Nearby Thunderstorms 73 22.8 72 22.2 96 96 N 8 13 29.97 1015 1 1.60934 0.44 11.176
5:23 pm 17:23 Cloudy with Nearby Thunderstorms 73 22.8 72 22.2 96 96 N 8 13 29.97 1015 0.75 1.207005 0.53 13.462
5:28 pm 17:28 Cloudy with Heavy Rain 73 22.8 73 22.8 100 100 N 7 11 29.97 1015 1 1.60934 0.59 14.986
5:35 pm 17:35 Cloudy with Light Rain 73 22.8 72 22.2 96 96 N 6 9 29.97 1015 3 4.82802 0.6 15.24
5:49 pm 17:49 Cloudy with Light Rain 73 23 73 23 100 100 N 3 6 29.97 1015 4 6.43736 0.62 15.748
5:54 pm 17:54 Cloudy with Rain 74 23.3 73 22.8 97 97 NE 8 13 29.96 1015 3 4.82802 0.63 16.002
6:54 pm 18:54 Cloudy 76 24.4 74 23.3 94 94 NE 7 11 29.96 1015 10 16.0934 0 0.0254
7:05 pm 19:05 Cloudy 76 24.4 74 23.3 94 94 NE 6 9 29.94 1014 10 16.0934 0 0
7:15 pm 19:15 Cloudy 77 25 74 23.3 90 90 NE 7 11 29.94 1014 10 16.0934 0 0
7:54 pm 19:54 Mostly Cloudy 77 25 73 22.8 88 88 ENE 6 9 29.96 1015 10 16.0934 0 0
8:54 pm 20:54 Clear 74 23.3 72 22.2 94 94 N 7 11 29.96 1014 7 11.26538 0 0
9:19 pm 21:19 Mostly Cloudy 75 23.9 73 22.8 94 94 N 8 13 29.94 1014 7 11.26538 0 0
9:54 pm 21:54 Mostly Cloudy 74 23.3 72 22.2 94 94 NNE 9 15 29.98 1015 7 11.26538 0 0
10:08 pm 22:08 Mostly Cloudy 74 23.3 72 22.2 94 94 NNE 8 13 30 1016 7 11.26538 0 0
10:54 pm 22:54 Mostly Cloudy with Mist and Fog 73 22.8 72 22.2 96 96 NNE 5 7 29.99 1016 4 6.43736 0 0
11:08 pm 23:08 Mostly Clear with Mist and Fog 73 22.8 72 22.2 96 96 N 6 9 30 1016 5 8.0467 0 0
11:51 pm 23:51 Mostly Cloudy with Mist and Fog 73 23 72 22 94 94 Calm 30 1016 5 8.0467 0 0
11:54 pm 23:54 Mostly Cloudy with Mist and Fog 73 22.8 71 21.7 94 94 NE 3 6 30 1016 5 8.0467 0 0

Powered by AerisWeather